FW8040 Weather Reports


time (UTC)temp
C
wind
direction
speed
KPH
gust
KPH
rain 1hr
cm
rain 24hr
cm
rain mn
cm
humidity
%
barometer
mb
20260510202546 31 0 0.0 1.6 0.00 0.00 0.00 30 1012.9
20260510202044 31 0 0.0 1.6 0.00 0.00 0.00 29 1012.9
20260510201552 31 0 0.0 1.6 0.00 0.00 0.00 28 1012.9
20260510201046 31 0 0.0 1.6 0.00 0.00 0.00 30 1012.9
20260510200544 30 0 0.0 1.6 0.00 0.00 0.00 30 1013.0
20260510200051 30 0 0.0 1.6 0.00 0.00 0.00 31 1012.9
20260510195544 30 0 0.0 1.6 0.00 0.00 0.00 30 1013.0
20260510195044 30 0 0.0 1.6 0.00 0.00 0.00 30 1013.0
20260510194556 30 231 0.0 1.6 0.00 0.00 0.00 30 1013.1
20260510194044 30 217 0.0 1.6 0.00 0.00 0.00 30 1013.1
20260510193544 29 0 0.0 1.6 0.00 0.00 0.00 30 1013.1
20260510193053 29 0 0.0 1.6 0.00 0.00 0.00 32 1013.2
20260510192544 29 0 0.0 1.6 0.00 0.00 0.00 33 1013.1
20260510192046 28 227 0.0 1.6 0.00 0.00 0.00 33 1013.3
20260510191552 28 230 0.0 1.6 0.00 0.00 0.00 33 1013.4
20260510191047 28 0 0.0 3.2 0.00 0.00 0.00 33 1013.3
20260510190544 28 0 0.0 3.2 0.00 0.00 0.00 32 1013.4
20260510190049 28 0 0.0 1.6 0.00 0.00 0.00 33 1013.5
20260510185544 28 243 0.0 1.6 0.00 0.00 0.00 35 1013.6
20260510185044 28 0 0.0 1.6 0.00 0.00 0.00 34 1013.7
20260510184548 28 244 0.0 3.2 0.00 0.00 0.00 36 1013.6
20260510184047 27 0 0.0 3.2 0.00 0.00 0.00 34 1013.7
20260510183544 27 80 0.0 3.2 0.00 0.00 0.00 36 1013.9
20260510183047 28 80 0.0 1.6 0.00 0.00 0.00 34 1014.0
20260510182543 27 0 0.0 1.6 0.00 0.00 0.00 36 1014.0
20260510182043 27 0 0.0 3.2 0.00 0.00 0.00 36 1014.0
20260510181604 27 0 0.0 3.2 0.00 0.00 0.00 35 1014.1
20260510181046 27 0 0.0 1.6 0.00 0.00 0.00 35 1014.1
20260510180545 27 320 0.0 1.6 0.00 0.00 0.00 34 1014.2
20260510180103 27 231 0.0 1.6 0.00 0.00 0.00 37 1014.1
20260510175544 27 267 0.0 1.6 0.00 0.00 0.00 36 1014.2
20260510175046 27 326 0.0 1.6 0.00 0.00 0.00 37 1014.3
20260510174549 27 114 0.0 1.6 0.00 0.00 0.00 39 1014.2
20260510174044 27 0 0.0 1.6 0.00 0.00 0.00 37 1014.2
20260510173544 27 0 0.0 1.6 0.00 0.00 0.00 36 1014.2
20260510173051 26 0 0.0 1.6 0.00 0.00 0.00 36 1014.2
20260510172544 26 0 0.0 3.2 0.00 0.00 0.00 39 1014.3
20260510172044 26 0 0.0 3.2 0.00 0.00 0.00 37 1014.2
20260510171556 26 0 0.0 1.6 0.00 0.00 0.00 38 1014.3
20260510171043 26 0 0.0 1.6 0.00 0.00 0.00 39 1014.3
20260510170543 26 0 0.0 1.6 0.00 0.00 0.00 39 1014.3
20260510170048 26 288 0.0 1.6 0.00 0.00 0.00 39 1014.3
20260510165544 26 0 0.0 1.6 0.00 0.00 0.00 40 1014.2
20260510165044 26 0 0.0 3.2 0.00 0.00 0.00 42 1014.4
20260510164559 26 0 0.0 3.2 0.00 0.00 0.00 41 1014.4
20260510164044 26 90 0.0 1.6 0.00 0.00 0.00 40 1014.4
20260510163544 26 0 0.0 3.2 0.00 0.00 0.00 40 1014.4
20260510163052 26 0 0.0 3.2 0.00 0.00 0.00 38 1014.5
20260510162544 26 257 0.0 1.6 0.00 0.00 0.00 39 1014.5
20260510162045 26 0 0.0 1.6 0.00 0.00 0.00 42 1014.5
20260510161549 26 239 0.0 1.6 0.00 0.00 0.00 41 1014.6
20260510161044 26 0 0.0 1.6 0.00 0.00 0.00 45 1014.6
20260510160544 25 0 0.0 0.0 0.00 0.00 0.00 44 1014.6
20260510160049 25 0 0.0 1.6 0.00 0.00 0.00 43 1014.7
20260510155543 25 0 0.0 1.6 0.00 0.00 0.00 47 1014.8
20260510155044 25 0 0.0 1.6 0.00 0.00 0.00 48 1015.0
20260510154557 25 338 0.0 1.6 0.00 0.00 0.00 47 1015.1
20260510154044 25 0 0.0 1.6 0.00 0.00 0.00 51 1015.1
20260510153549 24 0 0.0 1.6 0.00 0.00 0.00 53 1015.2
20260510153053 24 0 0.0 1.6 0.00 0.00 0.00 52 1015.2
20260510152544 24 0 0.0 1.6 0.00 0.00 0.00 55 1015.1
20260510152047 24 0 0.0 1.6 0.00 0.00 0.00 55 1015.1
20260510151549 23 0 0.0 1.6 0.00 0.00 0.00 57 1015.0
20260510151044 23 0 0.0 1.6 0.00 0.00 0.00 58 1014.9
20260510150544 23 0 0.0 1.6 0.00 0.00 0.00 60 1014.9
20260510150120 23 0 0.0 0.0 0.00 0.00 0.00 60 1014.9
20260510145544 23 0 0.0 0.0 0.00 0.00 0.00 59 1014.9
20260510145044 23 312 0.0 0.0 0.00 0.00 0.00 60 1015.0
20260510144603 22 0 0.0 1.6 0.00 0.00 0.00 61 1014.9
20260510144044 22 325 0.0 1.6 0.00 0.00 0.00 61 1014.9
20260510143544 22 0 0.0 1.6 0.00 0.00 0.00 62 1014.9
20260510143107 22 0 0.0 1.6 0.00 0.00 0.00 64 1014.9
20260510142543 22 0 0.0 1.6 0.00 0.00 0.00 63 1014.7
20260510142042 22 0 0.0 1.6 0.00 0.00 0.00 63 1014.8
20260510141551 22 0 0.0 1.6 0.00 0.00 0.00 65 1014.7
20260510141043 22 0 0.0 1.6 0.00 0.00 0.00 66 1014.7
20260510140542 22 0 0.0 1.6 0.00 0.00 0.00 67 1014.7
20260510140049 21 328 0.0 1.6 0.00 0.00 0.00 67 1014.8
20260510135542 21 0 0.0 1.6 0.00 0.00 0.00 69 1014.7
20260510135042 21 0 0.0 1.6 0.00 0.00 0.00 68 1014.7
20260510134554 21 0 0.0 1.6 0.00 0.00 0.00 69 1014.7
20260510134044 21 0 0.0 1.6 0.00 0.00 0.00 70 1014.7
20260510133545 21 0 0.0 1.6 0.00 0.00 0.00 71 1014.6
20260510133049 20 0 0.0 0.0 0.00 0.00 0.00 73 1014.5
20260510132543 20 0 0.0 0.0 0.00 0.00 0.00 75 1014.6
20260510132042 20 0 0.0 0.0 0.00 0.00 0.00 76 1014.7
20260510131552 20 0 0.0 0.0 0.00 0.00 0.00 78 1014.7
20260510131043 20 0 0.0 0.0 0.00 0.00 0.00 82 1014.4
20260510130544 19 0 0.0 0.0 0.00 0.00 0.00 84 1014.3
20260510130052 19 0 0.0 0.0 0.00 0.00 0.00 84 1014.2
20260510125540 19 0 0.0 0.0 0.00 0.00 0.00 86 1014.1
20260510125042 18 0 0.0 0.0 0.00 0.00 0.00 86 1014.0
20260510124559 18 0 0.0 1.6 0.00 0.00 0.00 87 1014.1
20260510124042 18 0 0.0 1.6 0.00 0.00 0.00 89 1014.2
20260510123542 17 0 0.0 0.0 0.00 0.00 0.00 91 1014.1
20260510123057 17 0 0.0 0.0 0.00 0.00 0.00 92 1014.0
20260510122541 17 0 0.0 0.0 0.00 0.00 0.00 93 1014.1
20260510122042 16 0 0.0 0.0 0.00 0.00 0.00 94 1014.0
20260510121543 16 0 0.0 0.0 0.00 0.00 0.00 94 1013.9
20260510121042 16 0 0.0 0.0 0.00 0.00 0.00 94 1013.8
20260510120544 16 0 0.0 0.0 0.00 0.00 0.00 94 1013.8
20260510120049 16 0 0.0 0.0 0.00 0.00 0.00 94 1013.8
20260510115543 16 0 0.0 0.0 0.00 0.00 0.00 95 1013.8
20260510115043 16 0 0.0 0.0 0.00 0.00 0.00 95 1013.7
20260510114550 16 0 0.0 0.0 0.00 0.00 0.00 95 1013.7
20260510114043 16 0 0.0 0.0 0.00 0.00 0.00 95 1013.6
20260510113542 16 0 0.0 0.0 0.00 0.00 0.00 95 1013.5
20260510113046 15 0 0.0 0.0 0.00 0.00 0.00 95 1013.5
20260510112545 15 0 0.0 0.0 0.00 0.00 0.00 95 1013.4
20260510112043 15 0 0.0 0.0 0.00 0.00 0.00 95 1013.4
20260510111601 15 0 0.0 0.0 0.00 0.00 0.00 94 1013.3
20260510111045 15 0 0.0 0.0 0.00 0.00 0.00 94 1013.3
20260510110544 15 0 0.0 0.0 0.00 0.00 0.00 94 1013.2
20260510110057 15 0 0.0 0.0 0.00 0.00 0.00 94 1013.2
20260510105546 15 0 0.0 0.0 0.00 0.00 0.00 94 1013.1
20260510105046 15 0 0.0 0.0 0.00 0.00 0.00 94 1013.0
20260510104607 15 0 0.0 0.0 0.00 0.00 0.00 94 1013.1
20260510104044 15 0 0.0 0.0 0.00 0.00 0.00 94 1013.1
20260510103546 15 0 0.0 0.0 0.00 0.00 0.00 94 1013.0
20260510103105 15 0 0.0 0.0 0.00 0.00 0.00 94 1012.8
20260510102548 15 0 0.0 0.0 0.00 0.00 0.00 94 1012.7
20260510102049 15 0 0.0 0.0 0.00 0.00 0.00 94 1012.5
20260510101559 15 0 0.0 0.0 0.00 0.00 0.00 94 1012.3
20260510101045 15 0 0.0 0.0 0.00 0.00 0.00 94 1012.2
20260510100544 15 0 0.0 0.0 0.00 0.00 0.00 94 1012.2
20260510100058 15 0 0.0 0.0 0.00 0.00 0.00 94 1012.1
20260510095544 15 0 0.0 0.0 0.00 0.00 0.00 94 1012.0
20260510095043 15 0 0.0 0.0 0.00 0.00 0.00 94 1011.9
20260510094556 15 0 0.0 0.0 0.00 0.00 0.00 94 1011.9
20260510094045 15 0 0.0 0.0 0.00 0.00 0.00 94 1011.7
20260510093545 15 0 0.0 0.0 0.00 0.00 0.00 94 1011.8
20260510093120 15 0 0.0 0.0 0.00 0.00 0.00 94 1011.7
20260510092545 15 0 0.0 0.0 0.00 0.00 0.00 94 1011.7
20260510092046 15 0 0.0 0.0 0.00 0.00 0.00 94 1011.7
20260510091558 15 0 0.0 0.0 0.00 0.00 0.00 94 1011.7
20260510091044 15 0 0.0 0.0 0.00 0.00 0.00 94 1011.6
20260510090544 15 0 0.0 0.0 0.00 0.00 0.00 94 1011.6
20260510090053 15 0 0.0 0.0 0.00 0.00 0.00 94 1011.5
20260510085544 15 0 0.0 0.0 0.00 0.00 0.00 94 1011.6
20260510085047 15 0 0.0 0.0 0.00 0.00 0.00 94 1011.6
20260510084554 15 0 0.0 0.0 0.00 0.00 0.00 94 1011.4
20260510084044 15 0 0.0 0.0 0.00 0.00 0.00 94 1011.4
20260510083544 15 0 0.0 0.0 0.00 0.00 0.00 94 1011.4
20260510083105 15 0 0.0 0.0 0.00 0.00 0.00 94 1011.3
20260510082543 15 0 0.0 0.0 0.00 0.00 0.00 94 1011.2
20260510082044 15 0 0.0 0.0 0.00 0.00 0.00 94 1011.3
20260510081556 15 0 0.0 0.0 0.00 0.00 0.00 94 1011.3
20260510081044 15 0 0.0 0.0 0.00 0.00 0.00 94 1011.3
20260510080545 15 0 0.0 0.0 0.00 0.00 0.00 94 1011.1
20260510080057 15 0 0.0 0.0 0.00 0.00 0.00 94 1011.2
20260510075543 15 0 0.0 0.0 0.00 0.00 0.00 93 1011.2
20260510075042 15 0 0.0 0.0 0.00 0.00 0.00 93 1011.2
20260510074549 15 0 0.0 0.0 0.00 0.00 0.00 93 1011.2
20260510074040 15 0 0.0 0.0 0.00 0.00 0.00 93 1011.1
20260510073540 16 0 0.0 0.0 0.00 0.00 0.00 93 1011.1
20260510073056 16 0 0.0 0.0 0.00 0.00 0.00 93 1010.9
20260510072542 16 0 0.0 0.0 0.00 0.00 0.00 93 1010.9
20260510072043 16 0 0.0 0.0 0.00 0.00 0.00 93 1011.0
20260510071547 16 0 0.0 0.0 0.00 0.00 0.00 94 1011.0
20260510071043 16 0 0.0 0.0 0.00 0.00 0.00 94 1011.1
20260510070542 16 0 0.0 0.0 0.00 0.00 0.00 94 1011.2
20260510070047 16 0 0.0 0.0 0.00 0.00 0.00 94 1011.2
20260510065544 16 0 0.0 0.0 0.00 0.00 0.00 94 1011.3
20260510065042 16 0 0.0 0.0 0.00 0.00 0.00 94 1011.3
20260510064559 16 0 0.0 0.0 0.00 0.00 0.00 94 1011.3
20260510064042 16 0 0.0 0.0 0.00 0.00 0.00 94 1011.2
20260510063542 16 0 0.0 0.0 0.00 0.00 0.00 94 1011.2
20260510063051 16 0 0.0 0.0 0.00 0.00 0.00 94 1011.2
20260510062542 16 0 0.0 0.0 0.00 0.00 0.00 94 1011.0
20260510062044 16 0 0.0 0.0 0.00 0.00 0.00 94 1010.8
20260510061550 16 0 0.0 0.0 0.00 0.00 0.00 94 1010.9
20260510061043 16 0 0.0 0.0 0.00 0.00 0.00 94 1011.1
20260510060543 16 0 0.0 0.0 0.00 0.00 0.00 94 1011.1
20260510060049 16 0 0.0 0.0 0.00 0.00 0.00 93 1011.2
20260510055542 16 0 0.0 0.0 0.00 0.00 0.00 93 1011.3
20260510055044 16 0 0.0 0.0 0.00 0.00 0.00 93 1011.3
20260510054552 16 0 0.0 0.0 0.00 0.00 0.00 93 1011.3
20260510054044 16 0 0.0 0.0 0.00 0.00 0.00 93 1011.3
20260510053544 16 0 0.0 0.0 0.00 0.00 0.00 93 1011.4
20260510053050 16 0 0.0 0.0 0.00 0.00 0.00 93 1011.5
20260510052542 16 0 0.0 0.0 0.00 0.00 0.00 93 1011.5
20260510052042 16 0 0.0 0.0 0.00 0.00 0.00 93 1011.6
20260510051604 16 0 0.0 0.0 0.00 0.00 0.00 93 1011.5
20260510051044 16 0 0.0 0.0 0.00 0.00 0.00 93 1011.6
20260510050544 16 0 0.0 0.0 0.00 0.00 0.00 93 1011.5
20260510050053 16 0 0.0 0.0 0.00 0.00 0.00 92 1011.4
20260510045543 16 0 0.0 0.0 0.00 0.00 0.00 92 1011.4
20260510045043 16 0 0.0 0.0 0.00 0.00 0.00 92 1011.7
20260510044558 16 0 0.0 0.0 0.00 0.00 0.00 92 1011.7
20260510044043 16 0 0.0 0.0 0.00 0.00 0.00 92 1011.7
20260510043543 16 0 0.0 0.0 0.00 0.00 0.00 92 1011.6
20260510043048 16 0 0.0 0.0 0.00 0.00 0.00 92 1011.7
20260510042543 16 0 0.0 0.0 0.00 0.00 0.00 92 1011.7
20260510042042 16 0 0.0 0.0 0.00 0.00 0.00 92 1011.7
20260510041549 16 0 0.0 0.0 0.00 0.00 0.00 91 1011.7
20260510041042 16 0 0.0 0.0 0.00 0.00 0.00 91 1011.7
20260510040542 16 0 0.0 0.0 0.00 0.00 0.00 91 1011.7
20260510040051 16 0 0.0 0.0 0.00 0.00 0.00 91 1011.6
20260510035542 16 0 0.0 0.0 0.00 0.00 0.00 91 1011.6
20260510035047 17 0 0.0 0.0 0.00 0.00 0.00 91 1011.5
20260510034547 17 0 0.0 0.0 0.00 0.00 0.00 91 1011.5
20260510034043 17 0 0.0 0.0 0.00 0.00 0.00 90 1011.6
20260510033542 17 0 0.0 0.0 0.00 0.00 0.00 90 1011.6
20260510033059 17 0 0.0 0.0 0.00 0.00 0.00 90 1011.5
20260510032545 17 0 0.0 0.0 0.00 0.00 0.00 90 1011.4
20260510032043 17 0 0.0 0.0 0.00 0.00 0.00 90 1011.3
20260510031555 17 0 0.0 0.0 0.00 0.00 0.00 90 1011.2
20260510031043 17 0 0.0 0.0 0.00 0.00 0.00 89 1011.3
20260510030543 17 0 0.0 0.0 0.00 0.00 0.00 89 1011.3
20260510025543 17 0 0.0 0.0 0.00 0.00 0.00 88 1011.2
20260510025043 17 0 0.0 0.0 0.00 0.00 0.00 88 1011.2
20260510024550 17 0 0.0 0.0 0.00 0.00 0.00 88 1011.3
20260510024043 17 0 0.0 0.0 0.00 0.00 0.00 88 1011.2
20260510023543 17 0 0.0 0.0 0.00 0.00 0.00 88 1011.1
20260510023052 17 0 0.0 0.0 0.00 0.00 0.00 88 1011.2
20260510022547 17 0 0.0 0.0 0.00 0.00 0.00 87 1011.1
20260510022044 17 0 0.0 0.0 0.00 0.00 0.00 87 1011.1
20260510021558 17 0 0.0 0.0 0.00 0.00 0.00 87 1011.1
20260510021042 17 0 0.0 0.0 0.00 0.00 0.00 87 1011.0
20260510020543 17 0 0.0 0.0 0.00 0.00 0.00 87 1011.0
20260510020053 17 0 0.0 0.0 0.00 0.00 0.00 87 1011.0
20260510015542 18 0 0.0 0.0 0.00 0.00 0.00 86 1011.0
20260510015042 18 0 0.0 0.0 0.00 0.00 0.00 86 1011.0
20260510014556 18 0 0.0 0.0 0.00 0.00 0.00 86 1010.8
20260510014043 18 0 0.0 0.0 0.00 0.00 0.00 86 1010.7
20260510013543 18 0 0.0 0.0 0.00 0.00 0.00 86 1010.6
20260510013054 18 0 0.0 0.0 0.00 0.00 0.00 85 1010.6
20260510012546 18 0 0.0 0.0 0.00 0.00 0.00 85 1010.5
20260510012045 18 0 0.0 0.0 0.00 0.00 0.00 85 1010.5
20260510011552 18 0 0.0 0.0 0.00 0.00 0.00 85 1010.4
20260510011042 18 0 0.0 0.0 0.00 0.00 0.00 84 1010.3
20260510010547 18 0 0.0 0.0 0.00 0.00 0.00 84 1010.4
20260510010050 18 0 0.0 0.0 0.00 0.00 0.00 83 1010.3
20260510005544 19 0 0.0 0.0 0.00 0.00 0.00 83 1010.2
20260510005043 19 0 0.0 0.0 0.00 0.00 0.00 82 1010.2
20260510004553 19 0 0.0 0.0 0.00 0.00 0.00 82 1010.2
20260510004042 19 0 0.0 0.0 0.00 0.00 0.00 81 1010.1
20260510003543 19 0 0.0 0.0 0.00 0.00 0.00 81 1010.1
20260510003054 20 0 0.0 0.0 0.00 0.00 0.00 80 1010.2
20260510002542 20 0 0.0 0.0 0.00 0.00 0.00 80 1010.1
20260510002042 20 0 0.0 0.0 0.00 0.00 0.00 80 1010.1
20260510001548 20 0 0.0 0.0 0.00 0.00 0.00 79 1010.2
20260510001043 20 0 0.0 0.0 0.00 0.00 0.00 78 1010.1
20260510000543 20 0 0.0 0.0 0.00 0.00 0.00 78 1010.0
20260510000050 20 0 0.0 0.0 0.00 0.00 0.00 77 1010.0
20260509235543 21 0 0.0 0.0 0.00 0.00 0.00 77 1010.0
20260509235042 21 0 0.0 0.0 0.00 0.00 0.00 76 1010.0
20260509234555 21 0 0.0 0.0 0.00 0.00 0.00 75 1009.9
20260509234044 21 0 0.0 0.0 0.00 0.00 0.00 75 1009.7
20260509233546 21 0 0.0 0.0 0.00 0.00 0.00 74 1009.6
20260509233050 21 0 0.0 0.0 0.00 0.00 0.00 74 1009.5
20260509232547 21 0 0.0 0.0 0.00 0.00 0.00 74 1009.7
20260509232042 21 0 0.0 0.0 0.00 0.00 0.00 73 1009.7
20260509231604 21 0 0.0 0.0 0.00 0.00 0.00 73 1009.5
20260509231043 21 0 0.0 0.0 0.00 0.00 0.00 73 1009.5
20260509230542 22 0 0.0 0.0 0.00 0.00 0.00 73 1009.5
20260509230058 22 0 0.0 0.0 0.00 0.00 0.00 73 1009.5
20260509225543 22 0 0.0 0.0 0.00 0.00 0.00 73 1009.4
20260509225048 22 0 0.0 0.0 0.00 0.00 0.00 72 1009.2
20260509224558 22 0 0.0 0.0 0.00 0.00 0.00 72 1009.2
20260509224047 22 0 0.0 0.0 0.00 0.00 0.00 72 1009.3
20260509223544 22 0 0.0 0.0 0.00 0.00 0.00 72 1009.4
20260509223053 22 0 0.0 0.0 0.00 0.00 0.00 72 1009.3
20260509222545 22 0 0.0 0.0 0.00 0.00 0.00 72 1009.5
20260509222042 22 0 0.0 0.0 0.00 0.00 0.00 72 1009.5
20260509221554 22 0 0.0 0.0 0.00 0.00 0.00 71 1009.6
20260509221043 22 0 0.0 0.0 0.00 0.00 0.00 71 1009.5
20260509220543 22 0 0.0 1.6 0.00 0.00 0.00 71 1009.5
20260509220100 22 0 0.0 1.6 0.00 0.00 0.00 72 1009.5
20260509215543 22 0 0.0 1.6 0.00 0.00 0.00 72 1009.5
20260509215042 22 0 0.0 0.0 0.00 0.00 0.00 72 1009.4
20260509214551 22 0 0.0 0.0 0.00 0.00 0.00 71 1009.3
20260509214043 22 0 0.0 1.6 0.00 0.00 0.00 71 1009.3
20260509213543 22 0 0.0 1.6 0.00 0.00 0.00 71 1009.3
20260509213126 22 0 0.0 0.0 0.00 0.00 0.00 71 1009.3
20260509212542 22 0 0.0 1.6 0.00 0.00 0.00 72 1009.3
20260509212043 22 0 0.0 1.6 0.00 0.00 0.00 71 1009.1
20260509211552 22 0 0.0 1.6 0.00 0.00 0.00 70 1009.2
20260509211044 21 0 0.0 1.6 0.00 0.00 0.00 71 1009.1
20260509210544 21 0 0.0 1.6 0.00 0.00 0.00 71 1009.1
20260509210105 21 0 0.0 1.6 0.00 0.00 0.00 71 1009.2
20260509205542 21 0 0.0 1.6 0.00 0.00 0.00 71 1009.2
20260509205042 21 240 0.0 1.6 0.00 0.00 0.00 71 1009.2
20260509204555 21 0 0.0 1.6 0.00 0.00 0.00 71 1009.3
20260509204044 21 0 0.0 1.6 0.00 0.00 0.00 71 1009.2
20260509203543 21 0 0.0 1.6 0.00 0.00 0.00 70 1009.1
20260509203048 21 0 0.0 1.6 0.00 0.00 0.00 70 1009.3